User: anonymous   Login
Location: Unspecified
(0.0000°N, 0.0000°E)
Time: 08:37:01
(UTC+01:00)
Language:

Iridium 39 - Orbit

View from above orbital plane
View from above orbital plane
View from above satellite
View from above satellite

Ground track
Ground track

The orbit data is extracted from the following two-line orbital elements,

1 25042U 97069D   14303.49930668  .00000781  00000-0  27187-3 0   298
2 25042 086.3992 063.7168 0002249 106.1384 254.0060 14.34210263888617
Epoch (UTC): 30 October 2014 11:59:00
Eccentricity: 0.0002249
inclination: 86.3992°
perigee height: 776 km
apogee height: 779 km
right ascension of ascending node: 63.7168°
argument of perigee: 106.1384°
revolutions per day: 14.34210263
mean anomaly at epoch: 254.0060°
orbit number at epoch: 88861

The dashed part of the orbit path shows where the satellite is in the earth's shadow,  

DLR